| time (UTC) | temp C | wind direction | speed KPH | gust KPH | rain 1hr cm | rain 24hr cm | rain mn cm | humidity % | barometer mb |
| 20260505181503 | 28 | 210 | 24.1 | 0.0 | 0.00 | 0.00 | 0.00 | 65 | 1006.9 |
| 20260505181003 | 28 | 198 | 27.4 | 0.0 | 0.00 | 0.00 | 0.00 | 65 | 1007.1 |
| 20260505180503 | 28 | 211 | 29.0 | 0.0 | 0.00 | 0.00 | 0.00 | 66 | 1007.1 |
| 20260505180003 | 27 | 199 | 20.9 | 0.0 | 0.00 | 0.00 | 0.00 | 68 | 1007.2 |
| 20260505175503 | 27 | 186 | 24.1 | 0.0 | 0.00 | 0.00 | 0.00 | 68 | 1007.2 |
| 20260505174503 | 27 | 201 | 20.9 | 0.0 | 0.00 | 0.00 | 0.00 | 69 | 1007.3 |
| 20260505174003 | 27 | 196 | 27.4 | 0.0 | 0.00 | 0.00 | 0.00 | 69 | 1007.4 |
| 20260505173503 | 27 | 173 | 25.7 | 0.0 | 0.00 | 0.00 | 0.00 | 68 | 1007.5 |
| 20260505173003 | 27 | 180 | 20.9 | 0.0 | 0.00 | 0.00 | 0.00 | 68 | 1007.5 |
| 20260505172503 | 27 | 178 | 22.5 | 0.0 | 0.00 | 0.00 | 0.00 | 69 | 1007.5 |
| 20260505172003 | 27 | 180 | 24.1 | 0.0 | 0.00 | 0.00 | 0.00 | 70 | 1007.5 |
| 20260505171003 | 27 | 195 | 20.9 | 0.0 | 0.00 | 0.00 | 0.00 | 72 | 1007.7 |
| 20260505170503 | 27 | 222 | 22.5 | 0.0 | 0.00 | 0.00 | 0.00 | 70 | 1007.6 |
| 20260505170003 | 27 | 182 | 24.1 | 0.0 | 0.00 | 0.00 | 0.00 | 71 | 1007.6 |
| 20260505165503 | 26 | 223 | 22.5 | 0.0 | 0.00 | 0.00 | 0.00 | 73 | 1007.6 |
| 20260505165003 | 26 | 177 | 25.7 | 0.0 | 0.00 | 0.00 | 0.00 | 72 | 1007.6 |
| 20260505164503 | 26 | 190 | 29.0 | 0.0 | 0.00 | 0.00 | 0.00 | 73 | 1007.8 |
| 20260505164003 | 26 | 173 | 24.1 | 0.0 | 0.00 | 0.00 | 0.00 | 73 | 1007.8 |
| 20260505163003 | 26 | 185 | 24.1 | 0.0 | 0.00 | 0.00 | 0.00 | 74 | 1007.8 |
| 20260505162503 | 26 | 195 | 24.1 | 0.0 | 0.00 | 0.00 | 0.00 | 75 | 1007.8 |
| 20260505162003 | 25 | 184 | 20.9 | 0.0 | 0.00 | 0.00 | 0.00 | 76 | 1007.9 |
| 20260505160503 | 25 | 192 | 19.3 | 0.0 | 0.00 | 0.00 | 0.00 | 79 | 1008.0 |
| 20260505153003 | 23 | 177 | 16.1 | 0.0 | 0.00 | 0.00 | 0.00 | 83 | 1007.9 |
| 20260505152503 | 23 | 175 | 16.1 | 0.0 | 0.00 | 0.00 | 0.00 | 85 | 1007.9 |
| 20260505152003 | 23 | 189 | 22.5 | 0.0 | 0.00 | 0.00 | 0.00 | 85 | 1007.9 |
| 20260505151503 | 23 | 176 | 17.7 | 0.0 | 0.00 | 0.00 | 0.00 | 84 | 1007.9 |
| 20260505151003 | 23 | 176 | 17.7 | 0.0 | 0.00 | 0.00 | 0.00 | 84 | 1007.9 |
| 20260505150503 | 23 | 184 | 20.9 | 0.0 | 0.00 | 0.00 | 0.00 | 84 | 1007.8 |
| 20260505140503 | 23 | 170 | 19.3 | 0.0 | 0.00 | 0.00 | 0.00 | 83 | 1007.5 |
| 20260505125003 | 22 | 148 | 19.3 | 0.0 | 0.00 | 0.00 | 0.00 | 85 | 1007.2 |
| 20260505124503 | 22 | 174 | 17.7 | 0.0 | 0.00 | 0.00 | 0.00 | 86 | 1007.2 |
| 20260505124002 | 22 | 159 | 19.3 | 0.0 | 0.00 | 0.00 | 0.00 | 86 | 1007.1 |
| 20260505123503 | 22 | 163 | 17.7 | 0.0 | 0.00 | 0.00 | 0.00 | 86 | 1007.1 |
| 20260505123003 | 22 | 183 | 16.1 | 0.0 | 0.00 | 0.00 | 0.00 | 86 | 1007.1 |
| 20260505122503 | 22 | 192 | 17.7 | 0.0 | 0.00 | 0.00 | 0.00 | 86 | 1007.2 |
| 20260505121503 | 21 | 173 | 12.9 | 0.0 | 0.00 | 0.00 | 0.00 | 86 | 1006.9 |
| 20260505121003 | 21 | 176 | 17.7 | 0.0 | 0.00 | 0.00 | 0.00 | 86 | 1006.6 |
| 20260505120502 | 21 | 166 | 17.7 | 0.0 | 0.00 | 0.00 | 0.00 | 86 | 1006.6 |
| 20260505120003 | 21 | 166 | 24.1 | 0.0 | 0.00 | 0.00 | 0.00 | 86 | 1006.7 |
| 20260505115503 | 21 | 167 | 20.9 | 0.0 | 0.00 | 0.00 | 0.00 | 86 | 1006.6 |
| 20260505115003 | 21 | 173 | 17.7 | 0.0 | 0.00 | 0.00 | 0.00 | 86 | 1006.9 |
| 20260505114003 | 21 | 164 | 16.1 | 0.0 | 0.00 | 0.00 | 0.00 | 86 | 1006.9 |
| 20260505113503 | 21 | 168 | 17.7 | 0.0 | 0.00 | 0.00 | 0.00 | 85 | 1006.9 |
| 20260505113003 | 21 | 181 | 16.1 | 0.0 | 0.00 | 0.00 | 0.00 | 85 | 1006.9 |
| 20260505112502 | 21 | 161 | 16.1 | 0.0 | 0.00 | 0.00 | 0.00 | 85 | 1006.8 |
| 20260505112003 | 21 | 184 | 17.7 | 0.0 | 0.00 | 0.00 | 0.00 | 85 | 1006.9 |
| 20260505111503 | 21 | 180 | 16.1 | 0.0 | 0.00 | 0.00 | 0.00 | 85 | 1006.9 |
| 20260505111002 | 21 | 197 | 17.7 | 0.0 | 0.00 | 0.00 | 0.00 | 85 | 1006.6 |
| 20260505110502 | 21 | 193 | 17.7 | 0.0 | 0.00 | 0.00 | 0.00 | 85 | 1006.6 |
| 20260505102003 | 21 | 170 | 19.3 | 0.0 | 0.00 | 0.00 | 0.00 | 84 | 1006.6 |
| 20260505101003 | 21 | 177 | 22.5 | 0.0 | 0.00 | 0.00 | 0.00 | 84 | 1006.9 |
| 20260505100503 | 21 | 173 | 19.3 | 0.0 | 0.00 | 0.00 | 0.00 | 85 | 1006.9 |
| 20260505100003 | 21 | 179 | 19.3 | 0.0 | 0.00 | 0.00 | 0.00 | 85 | 1007.0 |
| 20260505095503 | 21 | 181 | 20.9 | 0.0 | 0.00 | 0.00 | 0.00 | 85 | 1006.9 |
| 20260505095002 | 21 | 179 | 17.7 | 0.0 | 0.00 | 0.00 | 0.00 | 85 | 1006.9 |
| 20260505094503 | 21 | 168 | 20.9 | 0.0 | 0.00 | 0.00 | 0.00 | 85 | 1006.9 |
| 20260505093502 | 21 | 170 | 19.3 | 0.0 | 0.00 | 0.00 | 0.00 | 85 | 1006.9 |
| 20260505093003 | 21 | 146 | 19.3 | 0.0 | 0.00 | 0.00 | 0.00 | 85 | 1007.0 |
| 20260505092502 | 21 | 178 | 20.9 | 0.0 | 0.00 | 0.00 | 0.00 | 85 | 1006.9 |
| 20260505092002 | 21 | 178 | 17.7 | 0.0 | 0.00 | 0.00 | 0.00 | 85 | 1006.9 |
| 20260505091502 | 21 | 160 | 17.7 | 0.0 | 0.00 | 0.00 | 0.00 | 86 | 1007.0 |
| 20260505091003 | 21 | 163 | 17.7 | 0.0 | 0.00 | 0.00 | 0.00 | 85 | 1007.1 |
| 20260505090502 | 21 | 161 | 22.5 | 0.0 | 0.00 | 0.00 | 0.00 | 85 | 1006.9 |
| 20260505090003 | 21 | 177 | 19.3 | 0.0 | 0.00 | 0.00 | 0.00 | 86 | 1007.2 |
| 20260505085502 | 21 | 178 | 16.1 | 0.0 | 0.00 | 0.00 | 0.00 | 86 | 1007.0 |
| 20260505085002 | 21 | 171 | 19.3 | 0.0 | 0.00 | 0.00 | 0.00 | 86 | 1007.2 |
| 20260505084502 | 21 | 179 | 16.1 | 0.0 | 0.00 | 0.00 | 0.00 | 86 | 1007.4 |
| 20260505084002 | 21 | 169 | 17.7 | 0.0 | 0.00 | 0.00 | 0.00 | 87 | 1007.4 |
| 20260505083503 | 21 | 161 | 16.1 | 0.0 | 0.00 | 0.00 | 0.00 | 87 | 1007.4 |
| 20260505082502 | 21 | 152 | 14.5 | 0.0 | 0.00 | 0.00 | 0.00 | 87 | 1007.6 |
| 20260505082003 | 21 | 142 | 12.9 | 0.0 | 0.00 | 0.00 | 0.00 | 87 | 1007.7 |
| 20260505081502 | 21 | 151 | 12.9 | 0.0 | 0.00 | 0.00 | 0.00 | 86 | 1007.8 |
| 20260505081002 | 21 | 138 | 14.5 | 0.0 | 0.00 | 0.00 | 0.00 | 86 | 1007.8 |
| 20260505080503 | 21 | 152 | 12.9 | 0.0 | 0.00 | 0.00 | 0.00 | 86 | 1007.9 |
| 20260505080002 | 21 | 154 | 12.9 | 0.0 | 0.00 | 0.00 | 0.00 | 86 | 1007.9 |
| 20260505075503 | 21 | 151 | 12.9 | 0.0 | 0.00 | 0.00 | 0.00 | 86 | 1007.9 |
| 20260505075002 | 21 | 141 | 14.5 | 0.0 | 0.00 | 0.00 | 0.00 | 86 | 1008.0 |
| 20260505074503 | 21 | 157 | 14.5 | 0.0 | 0.00 | 0.00 | 0.00 | 86 | 1007.9 |
| 20260505074003 | 21 | 153 | 16.1 | 0.0 | 0.00 | 0.00 | 0.00 | 85 | 1007.9 |
| 20260505073502 | 21 | 148 | 14.5 | 0.0 | 0.00 | 0.00 | 0.00 | 85 | 1007.9 |
| 20260505073003 | 21 | 151 | 14.5 | 0.0 | 0.00 | 0.00 | 0.00 | 85 | 1008.1 |
| 20260505072502 | 21 | 153 | 17.7 | 0.0 | 0.00 | 0.00 | 0.00 | 85 | 1008.2 |
| 20260505072002 | 21 | 154 | 16.1 | 0.0 | 0.00 | 0.00 | 0.00 | 85 | 1008.2 |
| 20260505071503 | 21 | 149 | 16.1 | 0.0 | 0.00 | 0.00 | 0.00 | 85 | 1008.2 |
| 20260505070504 | 21 | 158 | 17.7 | 0.0 | 0.00 | 0.00 | 0.00 | 84 | 1008.4 |
| 20260505070005 | 21 | 167 | 16.1 | 0.0 | 0.00 | 0.00 | 0.00 | 84 | 1008.5 |
| 20260505065504 | 21 | 163 | 17.7 | 0.0 | 0.00 | 0.00 | 0.00 | 84 | 1008.6 |
| 20260505065004 | 21 | 153 | 16.1 | 0.0 | 0.00 | 0.00 | 0.00 | 83 | 1008.7 |
| 20260505064004 | 21 | 172 | 17.7 | 0.0 | 0.00 | 0.00 | 0.00 | 84 | 1008.7 |
| 20260505063504 | 21 | 142 | 14.5 | 0.0 | 0.00 | 0.00 | 0.00 | 84 | 1008.7 |
| 20260505063004 | 21 | 147 | 14.5 | 0.0 | 0.00 | 0.00 | 0.00 | 84 | 1008.7 |
| 20260505061004 | 21 | 159 | 16.1 | 0.0 | 0.00 | 0.00 | 0.00 | 83 | 1008.7 |
| 20260505060504 | 21 | 162 | 17.7 | 0.0 | 0.00 | 0.00 | 0.00 | 83 | 1008.5 |
| 20260505055504 | 21 | 159 | 16.1 | 0.0 | 0.00 | 0.00 | 0.00 | 83 | 1008.5 |
| 20260505055004 | 21 | 160 | 17.7 | 0.0 | 0.00 | 0.00 | 0.00 | 82 | 1008.5 |
| 20260505054004 | 21 | 156 | 20.9 | 0.0 | 0.00 | 0.00 | 0.00 | 82 | 1008.6 |
| 20260505053504 | 21 | 159 | 20.9 | 0.0 | 0.00 | 0.00 | 0.00 | 82 | 1008.6 |
| 20260505053004 | 21 | 154 | 19.3 | 0.0 | 0.00 | 0.00 | 0.00 | 82 | 1008.5 |
| 20260505052504 | 21 | 157 | 17.7 | 0.0 | 0.00 | 0.00 | 0.00 | 82 | 1008.5 |
| 20260505052004 | 21 | 160 | 20.9 | 0.0 | 0.00 | 0.00 | 0.00 | 81 | 1008.5 |
| 20260505051504 | 21 | 157 | 19.3 | 0.0 | 0.00 | 0.00 | 0.00 | 81 | 1008.6 |
| 20260505051004 | 21 | 148 | 20.9 | 0.0 | 0.00 | 0.00 | 0.00 | 80 | 1008.6 |
| 20260505050504 | 21 | 150 | 24.1 | 0.0 | 0.00 | 0.00 | 0.00 | 80 | 1008.7 |
| 20260505041504 | 22 | 154 | 22.5 | 0.0 | 0.00 | 0.00 | 0.00 | 78 | 1009.0 |
| 20260505041004 | 22 | 162 | 20.9 | 0.0 | 0.00 | 0.00 | 0.00 | 77 | 1008.9 |
| 20260505040005 | 22 | 171 | 25.7 | 0.0 | 0.00 | 0.00 | 0.00 | 77 | 1008.9 |
| 20260505035504 | 22 | 146 | 20.9 | 0.0 | 0.00 | 0.00 | 0.00 | 77 | 1008.8 |
| 20260505035004 | 22 | 159 | 25.7 | 0.0 | 0.00 | 0.00 | 0.00 | 76 | 1008.9 |
| 20260505034504 | 22 | 148 | 22.5 | 0.0 | 0.00 | 0.00 | 0.00 | 77 | 1008.7 |
| 20260505034004 | 22 | 150 | 20.9 | 0.0 | 0.00 | 0.00 | 0.00 | 77 | 1008.7 |
| 20260505033504 | 22 | 154 | 20.9 | 0.0 | 0.00 | 0.00 | 0.00 | 77 | 1008.7 |
| 20260505033004 | 22 | 142 | 14.5 | 0.0 | 0.00 | 0.00 | 0.00 | 77 | 1009.0 |
| 20260505032504 | 22 | 151 | 19.3 | 0.0 | 0.00 | 0.00 | 0.00 | 75 | 1009.0 |
| 20260505032004 | 22 | 148 | 20.9 | 0.0 | 0.00 | 0.00 | 0.00 | 74 | 1008.7 |
| 20260505031504 | 22 | 172 | 19.3 | 0.0 | 0.00 | 0.00 | 0.00 | 74 | 1008.7 |
| 20260505031004 | 23 | 145 | 22.5 | 0.0 | 0.00 | 0.00 | 0.00 | 73 | 1008.6 |
| 20260505030504 | 23 | 154 | 22.5 | 0.0 | 0.00 | 0.00 | 0.00 | 72 | 1008.7 |
| 20260505030004 | 23 | 166 | 22.5 | 0.0 | 0.00 | 0.00 | 0.00 | 72 | 1008.7 |
| 20260505025504 | 23 | 160 | 19.3 | 0.0 | 0.00 | 0.00 | 0.00 | 73 | 1008.7 |
| 20260505024504 | 23 | 149 | 19.3 | 0.0 | 0.00 | 0.00 | 0.00 | 73 | 1008.6 |
| 20260505024004 | 23 | 152 | 20.9 | 0.0 | 0.00 | 0.00 | 0.00 | 73 | 1008.5 |
| 20260505022504 | 23 | 151 | 16.1 | 0.0 | 0.00 | 0.00 | 0.00 | 72 | 1008.5 |
| 20260505022004 | 23 | 161 | 16.1 | 0.0 | 0.00 | 0.00 | 0.00 | 71 | 1008.5 |
| 20260505021504 | 23 | 156 | 17.7 | 0.0 | 0.00 | 0.00 | 0.00 | 70 | 1008.5 |
| 20260505020504 | 23 | 159 | 17.7 | 0.0 | 0.00 | 0.00 | 0.00 | 70 | 1008.5 |
| 20260505015004 | 23 | 178 | 24.1 | 0.0 | 0.00 | 0.00 | 0.00 | 68 | 1008.2 |
| 20260505014504 | 23 | 153 | 19.3 | 0.0 | 0.00 | 0.00 | 0.00 | 68 | 1008.2 |
| 20260505013504 | 24 | 168 | 16.1 | 0.0 | 0.00 | 0.00 | 0.00 | 68 | 1008.2 |
| 20260505013004 | 24 | 156 | 17.7 | 0.0 | 0.00 | 0.00 | 0.00 | 67 | 1008.2 |
| 20260505012004 | 24 | 155 | 19.3 | 0.0 | 0.00 | 0.00 | 0.00 | 67 | 1008.2 |
| 20260505011504 | 24 | 148 | 16.1 | 0.0 | 0.00 | 0.00 | 0.00 | 67 | 1008.2 |
| 20260505010504 | 25 | 160 | 22.5 | 0.0 | 0.00 | 0.00 | 0.00 | 66 | 1008.0 |
| 20260505010004 | 25 | 156 | 19.3 | 0.0 | 0.00 | 0.00 | 0.00 | 66 | 1008.0 |
| 20260505005504 | 25 | 161 | 20.9 | 0.0 | 0.00 | 0.00 | 0.00 | 65 | 1007.9 |
| 20260505005004 | 25 | 157 | 20.9 | 0.0 | 0.00 | 0.00 | 0.00 | 65 | 1007.9 |
| 20260505004504 | 25 | 150 | 20.9 | 0.0 | 0.00 | 0.00 | 0.00 | 64 | 1007.9 |
| 20260505004004 | 25 | 163 | 24.1 | 0.0 | 0.00 | 0.00 | 0.00 | 64 | 1008.0 |
| 20260505003504 | 25 | 156 | 24.1 | 0.0 | 0.00 | 0.00 | 0.00 | 63 | 1007.9 |
| 20260505003004 | 25 | 157 | 19.3 | 0.0 | 0.00 | 0.00 | 0.00 | 63 | 1008.1 |
| 20260505002504 | 25 | 165 | 24.1 | 0.0 | 0.00 | 0.00 | 0.00 | 62 | 1008.2 |
| 20260505002004 | 25 | 171 | 24.1 | 0.0 | 0.00 | 0.00 | 0.00 | 62 | 1008.2 |
| 20260505001504 | 26 | 163 | 29.0 | 0.0 | 0.00 | 0.00 | 0.00 | 61 | 1008.0 |
| 20260505001004 | 26 | 150 | 25.7 | 0.0 | 0.00 | 0.00 | 0.00 | 61 | 1008.1 |
| 20260505000504 | 26 | 156 | 27.4 | 0.0 | 0.00 | 0.00 | 0.00 | 61 | 1008.1 |
| 20260505000004 | 26 | 156 | 24.1 | 0.0 | 0.00 | 0.00 | 0.00 | 60 | 1008.2 |
| 20260504235504 | 26 | 155 | 25.7 | 0.0 | 0.00 | 0.00 | 0.00 | 59 | 1008.2 |
| 20260504234504 | 26 | 162 | 25.7 | 0.0 | 0.00 | 0.00 | 0.00 | 58 | 1008.2 |
| 20260504234004 | 26 | 181 | 25.7 | 0.0 | 0.00 | 0.00 | 0.00 | 57 | 1008.2 |
| 20260504233504 | 26 | 162 | 22.5 | 0.0 | 0.00 | 0.00 | 0.00 | 57 | 1008.3 |
| 20260504233004 | 27 | 160 | 24.1 | 0.0 | 0.00 | 0.00 | 0.00 | 56 | 1008.2 |
| 20260504232504 | 27 | 155 | 24.1 | 0.0 | 0.00 | 0.00 | 0.00 | 56 | 1008.2 |
| 20260504232004 | 26 | 154 | 24.1 | 0.0 | 0.00 | 0.00 | 0.00 | 56 | 1008.4 |
| 20260504231004 | 27 | 153 | 25.7 | 0.0 | 0.00 | 0.00 | 0.00 | 55 | 1008.3 |
| 20260504230504 | 27 | 150 | 29.0 | 0.0 | 0.00 | 0.00 | 0.00 | 53 | 1008.3 |
| 20260504225504 | 27 | 164 | 32.2 | 0.0 | 0.00 | 0.00 | 0.00 | 53 | 1008.5 |
| 20260504225004 | 27 | 155 | 29.0 | 0.0 | 0.00 | 0.00 | 0.00 | 52 | 1008.5 |
| 20260504224504 | 27 | 156 | 24.1 | 0.0 | 0.00 | 0.00 | 0.00 | 51 | 1008.6 |
| 20260504224004 | 27 | 153 | 25.7 | 0.0 | 0.00 | 0.00 | 0.00 | 52 | 1008.6 |
| 20260504223504 | 27 | 164 | 24.1 | 0.0 | 0.00 | 0.00 | 0.00 | 52 | 1008.8 |
| 20260504223004 | 27 | 176 | 30.6 | 0.0 | 0.00 | 0.00 | 0.00 | 51 | 1008.8 |
| 20260504222504 | 27 | 164 | 30.6 | 0.0 | 0.00 | 0.00 | 0.00 | 51 | 1008.6 |
| 20260504222004 | 27 | 149 | 24.1 | 0.0 | 0.00 | 0.00 | 0.00 | 51 | 1008.6 |
| 20260504221504 | 27 | 174 | 29.0 | 0.0 | 0.00 | 0.00 | 0.00 | 51 | 1008.7 |
| 20260504221004 | 27 | 171 | 27.4 | 0.0 | 0.00 | 0.00 | 0.00 | 51 | 1008.9 |
| 20260504220504 | 27 | 164 | 25.7 | 0.0 | 0.00 | 0.00 | 0.00 | 51 | 1008.9 |
| 20260504220004 | 28 | 165 | 29.0 | 0.0 | 0.00 | 0.00 | 0.00 | 47 | 1008.9 |
| 20260504215504 | 28 | 166 | 24.1 | 0.0 | 0.00 | 0.00 | 0.00 | 50 | 1009.0 |
| 20260504215004 | 28 | 170 | 22.5 | 0.0 | 0.00 | 0.00 | 0.00 | 50 | 1009.2 |
| 20260504214504 | 27 | 164 | 20.9 | 0.0 | 0.00 | 0.00 | 0.00 | 52 | 1009.2 |
| 20260504214004 | 27 | 166 | 19.3 | 0.0 | 0.00 | 0.00 | 0.00 | 52 | 1009.3 |
| 20260504213504 | 27 | 155 | 25.7 | 0.0 | 0.00 | 0.00 | 0.00 | 52 | 1009.3 |
| 20260504213004 | 27 | 169 | 27.4 | 0.0 | 0.00 | 0.00 | 0.00 | 52 | 1009.3 |
| 20260504212504 | 28 | 147 | 25.7 | 0.0 | 0.00 | 0.00 | 0.00 | 50 | 1009.6 |
| 20260504212004 | 27 | 124 | 22.5 | 0.0 | 0.00 | 0.00 | 0.00 | 52 | 1009.5 |
| 20260504211504 | 27 | 160 | 24.1 | 0.0 | 0.00 | 0.00 | 0.00 | 50 | 1009.8 |
| 20260504211004 | 27 | 189 | 24.1 | 0.0 | 0.00 | 0.00 | 0.00 | 49 | 1009.8 |
| 20260504210504 | 28 | 150 | 20.9 | 0.0 | 0.00 | 0.00 | 0.00 | 51 | 1009.8 |
| 20260504210004 | 27 | 163 | 25.7 | 0.0 | 0.00 | 0.00 | 0.00 | 50 | 1010.0 |
| 20260504205504 | 27 | 165 | 16.1 | 0.0 | 0.00 | 0.00 | 0.00 | 51 | 1010.1 |
| 20260504204504 | 27 | 142 | 19.3 | 0.0 | 0.00 | 0.00 | 0.00 | 52 | 1010.4 |
| 20260504204004 | 27 | 167 | 24.1 | 0.0 | 0.00 | 0.00 | 0.00 | 51 | 1010.4 |
| 20260504203504 | 27 | 167 | 20.9 | 0.0 | 0.00 | 0.00 | 0.00 | 52 | 1010.5 |
| 20260504203004 | 27 | 164 | 19.3 | 0.0 | 0.00 | 0.00 | 0.00 | 53 | 1010.6 |
| 20260504202504 | 27 | 152 | 22.5 | 0.0 | 0.00 | 0.00 | 0.00 | 50 | 1010.7 |
| 20260504202004 | 27 | 173 | 17.7 | 0.0 | 0.00 | 0.00 | 0.00 | 53 | 1010.8 |
| 20260504201504 | 27 | 161 | 22.5 | 0.0 | 0.00 | 0.00 | 0.00 | 50 | 1010.9 |
| 20260504201004 | 27 | 185 | 20.9 | 0.0 | 0.00 | 0.00 | 0.00 | 50 | 1010.9 |
| 20260504200504 | 27 | 156 | 27.4 | 0.0 | 0.00 | 0.00 | 0.00 | 49 | 1010.9 |
| 20260504195004 | 27 | 170 | 22.5 | 0.0 | 0.00 | 0.00 | 0.00 | 51 | 1011.4 |
| 20260504194504 | 27 | 191 | 24.1 | 0.0 | 0.00 | 0.00 | 0.00 | 52 | 1011.4 |
| 20260504194004 | 27 | 181 | 27.4 | 0.0 | 0.00 | 0.00 | 0.00 | 51 | 1011.5 |
| 20260504193504 | 27 | 189 | 14.5 | 0.0 | 0.00 | 0.00 | 0.00 | 50 | 1011.6 |
| 20260504193004 | 26 | 197 | 12.9 | 0.0 | 0.00 | 0.00 | 0.00 | 51 | 1011.8 |
| 20260504192503 | 27 | 187 | 25.7 | 0.0 | 0.00 | 0.00 | 0.00 | 50 | 1011.7 |
| 20260504191503 | 27 | 189 | 22.5 | 0.0 | 0.00 | 0.00 | 0.00 | 50 | 1011.8 |
| 20260504185004 | 26 | 168 | 20.9 | 0.0 | 0.00 | 0.00 | 0.00 | 50 | 1012.2 |
| 20260504184504 | 26 | 181 | 22.5 | 0.0 | 0.00 | 0.00 | 0.00 | 51 | 1012.2 |
| 20260504184004 | 26 | 186 | 24.1 | 0.0 | 0.00 | 0.00 | 0.00 | 51 | 1012.3 |
| 20260504183504 | 26 | 196 | 22.5 | 0.0 | 0.00 | 0.00 | 0.00 | 50 | 1012.5 |
| 20260504183004 | 26 | 220 | 19.3 | 0.0 | 0.00 | 0.00 | 0.00 | 52 | 1012.4 |
| 20260504182504 | 26 | 210 | 24.1 | 0.0 | 0.00 | 0.00 | 0.00 | 51 | 1012.6 |
| 20260504182004 | 26 | 198 | 17.7 | 0.0 | 0.00 | 0.00 | 0.00 | 53 | 1012.6 |